User: anonymous   Login
Location: Raven Hill Discovery Center
(45.1336°N, 85.0553°W)
Time: 17:44:45
(UTC-04:00)
Language:

Cosmos 1470 - Orbit

View from above orbital plane
View from above orbital plane
View from above satellite
View from above satellite

Ground track
Ground track

The orbit data is extracted from the following two-line orbital elements,

1 14147U 83061A   16152.18553440  .00000530  00000-0  30546-4 0  9990
2 14147  82.4889  53.9522 0015833 130.3048 229.9568 15.10168053547156
Epoch (UTC): 31 May 2016 04:27:10
Eccentricity: 0.0015833
inclination: 82.4889°
perigee height: 525 km
apogee height: 546 km
right ascension of ascending node: 53.9522°
argument of perigee: 130.3048°
revolutions per day: 15.10168053
mean anomaly at epoch: 229.9568°
orbit number at epoch: 54715

The dashed part of the orbit path shows where the satellite is in the earth's shadow,  

DLR